RH
5 5 5 5 5 5 5 4 4 3 3 3 3 3 3 3 3 3 4 3 2 2 2 2 2 2 2 1 2 2 1 2 2 2 1 1 2 1 2 2 1 2 2 2 4 3 4 4 6 16 19 35 81 107 104 102 100 101 102 100 104 105 99 101 100 98 101 101 100 101 100 103 101 99
6 5 5 5 5 5 5 4 4 3 3 3 3 3 3 3 3 3 4 3 2 2 2 2 2 2 2 1 2 2 1 2 2 2 2 1 2 1 1 2 1 2 2 2 4 3 4 4 5 15 19 27 69 103 104 104 104 101 102 101 104 105 99 101 101 98 101 100 101 104 102 103 103 99
6 5 5 5 5 5 5 4 4 3 3 3 3 3 3 3 3 3 4 3 2 2 2 2 2 1 2 1 2 2 1 2 1 2 2 1 2 2 1 2 1 2 2 2 4 4 4 5 4 13 20 22 55 96 106 107 105 101 103 102 102 104 100 101 102 99 101 101 101 102 99 100 102 100
6 5 5 5 5 5 5 4 4 3 3 3 3 3 3 2 3 3 3 3 2 2 2 2 2 1 2 1 2 2 1 2 2 1 2 1 1 2 1 2 2 2 2 2 3 4 3 5 4 10 20 20 43 88 105 102 101 102 107 106 103 102 99 101 102 99 102 102 100 99 97 99 102 101
6 5 5 5 5 5 5 4 4 3 3 3 3 3 3 2 3 3 3 3 2 2 2 2 2 1 2 2 1 2 2 2 2 1 2 2 1 2 1 2 2 1 2 1 3 4 3 4 4 8 19 19 32 78 107 103 100 103 106 104 101 100 99 100 103 101 101 102 101 99 98 101 102 101
6 5 5 6 5 5 5 4 4 3 3 3 3 3 3 2 3 3 3 3 2 2 2 2 3 1 2 2 1 2 2 2 2 2 2 2 1 2 1 2 2 1 2 2 2 4 3 4 4 5 17 21 25 63 103 106 102 104 103 101 100 99 98 101 106 106 102 101 102 100 99 101 101 100
5 5 5 6 5 5 5 4 4 3 3 3 3 3 3 2 3 3 3 3 2 2 2 2 2 2 1 2 1 2 2 1 2 2 2 2 1 2 1 1 2 1 2 2 1 3 3 4 5 4 13 21 22 49 93 104 99 102 103 100 99 99 99 101 106 107 102 100 101 100 101 102 100 99
5 5 5 6 5 5 5 4 4 3 3 3 3 3 3 2 3 3 2 3 2 2 2 2 2 2 2 2 1 2 2 1 2 1 2 2 1 2 2 1 2 2 2 2 1 3 4 3 5 4 10 20 20 37 82 104 99 101 106 102 97 98 100 100 102 103 102 102 101 100 101 101 100 100
5 5 5 6 5 5 5 4 4 3 3 3 3 3 3 3 3 3 2 2 2 2 2 2 2 2 2 2 1 2 2 1 2 1 1 2 2 2 2 1 2 2 2 3 2 2 3 3 5 4 7 19 21 27 67 102 103 100 106 102 95 98 100 100 102 103 105 105 101 100 101 101 100 100
5 5 6 6 5 5 5 4 4 4 3 3 3 3 3 3 3 3 2 2 2 2 2 2 2 2 2 2 1 1 2 1 2 2 1 2 2 2 2 1 2 2 1 2 2 2 3 3 4 5 5 15 22 22 50 92 104 99 103 101 94 99 101 101 103 103 103 104 101 99 101 100 100 100
5 6 6 5 5 5 5 4 4 3 3 3 3 3 3 3 3 3 2 2 2 2 2 2 2 2 2 2 2 1 2 2 1 2 1 2 2 2 2 2 1 2 2 2 2 2 3 3 3 5 4 11 21 21 35 78 104 100 101 101 96 99 102 101 104 103 100 103 104 101 101 101 100 101
5 6 6 5 5 4 4 4 4 3 4 4 4 3 3 4 4 3 2 2 2 2 2 2 2 2 2 2 2 1 1 2 2 2 1 1 2 2 2 2 2 2 2 2 3 2 2 3 3 5 4 7 18 22 26 62 100 103 99 101 97 98 102 102 104 103 100 102 104 101 101 101 100 101
5 6 6 5 5 5 4 4 4 4 4 4 4 4 4 4 4 3 2 2 2 2 2 2 2 2 2 1 2 1 1 2 1 2 2 1 2 2 2 2 2 2 2 1 2 2 2 3 3 4 5 5 14 22 21 44 89 107 101 100 99 98 102 104 102 102 102 102 102 101 101 102 101 101
5 6 6 5 5 5 5 4 3 4 4 4 4 4 4 5 4 3 2 2 2 2 2 2 2 2 2 2 2 1 1 2 1 2 2 1 2 1 1 2 2 2 2 1 2 2 1 3 3 3 5 4 9 21 22 30 70 104 105 99 99 100 101 103 101 101 103 103 102 100 98 100 101 101
5 6 5 5 5 5 5 4 3 4 4 4 4 4 4 5 4 3 3 2 2 2 2 2 2 2 2 1 2 1 1 2 1 1 2 1 2 2 1 2 2 2 2 1 2 3 1 2 4 3 5 5 6 16 24 24 48 91 107 99 98 102 100 101 103 101 101 101 101 100 98 98 102 101
5 6 5 5 5 5 5 4 3 4 4 4 4 4 4 5 4 3 3 2 2 2 2 2 2 2 2 1 2 2 1 2 1 1 2 1 1 2 1 2 2 1 2 2 1 2 2 2 3 3 4 6 5 11 23 24 32 70 102 102 99 104 102 100 102 101 99 100 102 102 100 99 101 101
5 6 5 5 5 5 5 4 4 4 4 4 4 4 5 5 4 3 3 2 3 2 2 2 2 2 2 2 2 2 1 2 2 1 2 2 1 2 1 1 2 2 2 2 2 2 3 2 2 4 4 5 6 7 18 25 26 47 87 107 105 104 104 100 100 101 99 99 101 102 101 100 99 99
6 6 5 5 5 5 5 5 5 5 4 4 4 4 5 5 4 3 3 2 2 3 2 2 2 2 2 2 1 2 1 1 2 1 1 2 1 2 2 1 2 2 2 2 2 2 2 2 2 3 4 4 6 6 12 24 26 31 64 100 106 100 101 102 101 102 100 99 101 102 100 101 100 96
6 6 5 5 6 5 5 6 6 5 4 4 4 5 5 5 4 3 3 2 2 3 2 2 2 2 2 2 1 2 2 1 2 2 1 2 1 1 2 1 1 2 2 2 2 2 2 3 2 2 4 4 5 6 8 18 28 28 43 79 103 102 100 102 103 103 101 100 101 102 101 101 101 98
6 6 5 6 6 6 6 7 6 5 4 4 4 5 5 5 4 3 3 2 2 2 2 2 2 2 2 2 2 1 2 1 1 2 1 2 2 1 1 2 1 2 2 2 3 2 2 3 3 2 3 4 4 7 7 12 24 30 31 55 92 108 102 99 103 102 99 101 101 101 102 101 100 101
6 6 6 6 6 6 7 8 7 5 5 4 4 5 6 5 4 3 3 3 2 2 2 2 2 2 2 2 2 1 2 2 1 2 2 1 2 2 1 2 2 2 2 2 2 3 2 2 3 2 2 4 4 5 7 8 17 29 30 39 71 101 105 99 102 102 99 101 102 99 100 101 99 101
6 6 6 6 6 6 8 9 8 6 5 4 4 5 6 5 4 3 3 3 3 3 3 2 2 2 2 2 2 1 2 2 1 2 2 1 2 2 1 2 2 2 2 3 2 3 2 2 3 3 2 3 4 4 6 7 11 23 32 33 49 84 105 102 99 101 100 100 101 100 99 100 101 101
6 6 6 7 6 7 9 10 8 7 5 5 5 5 6 5 4 4 3 3 3 3 3 2 2 2 2 2 2 2 1 2 2 1 2 2 2 2 1 1 2 2 2 3 2 2 3 2 2 3 2 2 4 4 5 7 8 15 28 33 37 61 94 105 100 99 102 101 100 101 101 100 101 101
6 6 7 7 7 8 11 10 9 8 6 5 5 5 6 6 5 5 4 3 3 3 3 3 2 2 2 2 2 2 1 1 2 1 2 2 1 2 2 1 2 2 2 2 2 2 3 3 2 3 3 2 3 4 5 7 8 10 20 31 34 43 71 100 107 102 102 104 101 100 101 101 100 100
6 6 7 7 8 10 12 11 9 8 7 6 5 5 6 7 6 5 4 3 3 3 2 3 2 2 2 2 2 2 2 2 2 1 1 2 2 2 2 1 2 2 2 2 2 2 3 4 3 2 3 3 3 4 5 5 7 8 13 24 34 36 48 79 104 105 99 101 102 99 100 102 101 100
6 7 7 7 9 11 12 11 9 9 7 6 6 6 6 7 7 6 4 3 3 3 3 3 3 2 2 2 2 2 2 2 2 2 1 2 2 2 2 2 1 2 2 2 2 2 3 3 3 3 3 3 3 3 4 5 6 8 9 15 28 36 38 55 87 105 102 98 101 101 99 101 102 100
6 7 7 8 10 12 13 11 9 9 7 6 6 6 7 8 8 6 4 3 3 3 3 2 3 2 2 2 2 2 2 2 2 2 2 2 2 2 2 2 2 1 2 2 1 2 3 3 3 3 2 3 3 3 3 5 5 7 9 10 18 31 36 40 62 93 105 101 100 102 101 100 102 101
7 8 7 8 11 14 13 11 9 8 7 6 6 7 7 8 8 6 4 3 3 3 3 3 3 2 2 2 2 2 2 2 2 2 2 2 2 2 2 2 2 1 2 2 2 2 3 3 3 3 3 3 3 3 3 4 5 5 8 9 11 21 33 37 45 71 96 103 101 101 101 100 102 102
7 8 8 9 13 15 13 11 10 8 7 6 6 7 7 7 7 6 4 3 3 3 3 3 3 3 2 2 2 2 2 2 2 2 2 2 2 2 2 2 2 2 1 2 2 2 2 3 3 3 3 3 3 4 3 3 4 5 6 9 10 13 24 34 38 52 78 98 102 100 99 101 102 101
8 8 8 11 15 16 13 11 10 9 8 7 6 6 6 6 7 6 5 4 3 3 3 3 2 3 3 2 2 2 2 2 2 2 2 2 2 2 2 2 2 2 2 2 2 2 2 3 3 3 3 3 3 3 4 3 4 5 5 7 10 10 15 26 34 41 58 83 100 102 99 100 102 101
8 7 9 14 17 16 13 11 10 9 8 7 6 6 6 6 7 7 5 4 3 3 3 3 3 2 3 2 2 2 2 2 2 2 2 2 2 2 2 2 2 2 2 2 2 2 2 2 3 3 3 3 3 3 4 3 3 4 5 6 8 10 11 16 26 35 44 62 85 101 102 98 99 102
8 8 11 17 18 16 13 11 11 9 8 7 7 7 6 7 7 7 6 4 3 3 3 3 3 3 3 3 2 2 2 2 2 2 2 2 2 2 2 2 2 2 2 2 2 2 2 2 2 3 3 3 4 3 3 4 3 3 4 5 6 9 10 11 17 27 36 45 62 85 100 101 98 99
8 9 14 19 19 15 13 12 11 10 8 8 8 8 7 7 8 8 7 5 3 3 3 3 3 3 3 3 3 2 2 2 2 3 2 2 2 2 2 2 2 2 2 2 2 2 2 2 2 3 3 3 4 4 3 4 4 3 3 4 5 6 9 11 12 17 26 36 45 61 85 102 102 97
8 11 18 21 19 16 15 13 12 10 9 8 8 8 7 7 8 8 8 6 4 3 3 3 3 3 3 3 3 2 2 3 3 3 3 2 2 2 2 2 2 2 2 2 2 2 2 2 2 2 3 3 3 4 3 3 4 4 3 3 4 5 7 9 12 13 17 27 36 44 63 89 104 102
9 15 21 22 19 17 16 14 13 11 9 8 9 8 7 7 7 8 8 7 4 4 3 3 3 3 3 3 3 3 2 3 3 3 3 3 2 2 3 2 2 3 2 2 3 3 2 3 2 2 3 3 3 3 4 3 3 4 4 3 3 5 6 7 9 12 13 17 27 36 46 67 93 104
12 20 25 23 21 19 18 15 13 11 9 9 9 8 8 7 7 8 8 7 5 4 3 4 3 3 3 3 3 3 3 2 3 3 3 3 3 2 3 3 3 3 3 2 3 3 3 3 3 3 3 3 3 3 4 4 4 3 4 4 3 3 5 6 7 10 12 13 18 28 35 47 70 95
17 25 27 25 23 21 19 16 14 11 9 9 9 8 8 7 7 7 7 7 6 4 3 3 3 3 3 3 3 3 3 2 3 3 3 3 3 2 2 3 3 3 3 3 3 3 3 3 3 3 3 3 4 4 4 4 4 4 3 4 4 3 4 5 6 7 11 12 14 19 27 35 48 71
22 28 28 26 24 23 19 16 14 11 9 9 9 8 8 7 7 7 7 7 7 5 4 3 4 3 3 3 3 3 3 3 3 3 3 4 4 3 3 3 3 3 3 3 3 3 3 3 3 3 4 3 3 4 4 4 4 4 4 4 4 4 3 4 5 6 8 11 13 14 19 27 35 46
27 30 28 27 25 23 19 16 14 12 10 9 9 8 8 7 7 7 8 8 7 6 4 4 4 3 3 4 3 3 3 3 3 3 3 4 4 4 3 3 3 3 3 3 3 3 3 3 4 4 4 4 4 3 4 4 4 4 5 4 4 4 4 4 4 5 6 8 11 13 14 19 26 33
32 32 29 28 26 23 19 16 14 12 11 10 9 8 7 7 7 7 8 8 7 7 6 4 4 4 3 3 3 3 3 3 3 3 3 3 4 4 4 3 3 3 3 3 3 4 3 3 4 4 3 4 4 4 4 4 4 4 4 5 4 4 5 4 4 5 5 6 8 11 13 15 18 25
34 32 29 28 26 23 19 17 15 13 11 10 9 8 7 7 7 7 8 9 8 7 6 5 4 4 4 3 4 4 3 3 3 3 3 3 4 4 4 4 3 3 4 4 3 4 4 3 3 4 4 4 4 4 4 4 4 4 4 4 4 4 4 5 4 4 5 5 6 8 11 13 15 17
34 31 28 27 25 22 19 18 16 14 12 11 10 8 7 7 6 6 7 8 8 7 6 5 4 4 4 4 4 4 4 3 3 3 3 3 3 4 4 5 4 4 3 4 4 3 4 4 3 3 4 4 4 4 4 4 4 4 4 4 4 4 4 4 5 4 4 5 6 7 8 10 13 15
33 30 28 27 25 22 19 18 16 14 12 11 10 9 7 6 6 6 7 8 9 8 7 6 5 4 4 4 4 4 4 4 3 3 3 3 3 4 4 4 5 5 4 4 4 4 4 4 4 4 4 4 4 4 4 4 4 4 4 4 4 4 4 4 4 5 5 4 4 5 6 7 10 12
32 29 28 26 24 21 20 18 16 14 13 11 10 9 7 7 6 6 6 7 9 9 8 6 5 5 4 4 4 4 4 4 4 3 3 3 3 3 4 4 5 5 5 4 4 4 4 4 4 4 4 4 4 4 4 4 4 4 4 4 4 4 4 4 4 4 5 5 5 5 5 6 7 9
31 29 28 26 23 21 20 18 16 15 13 11 10 9 7 7 6 6 6 7 8 9 8 7 6 5 5 4 4 4 4 4 4 3 3 4 3 3 3 4 4 5 5 5 4 4 5 4 4 4 4 4 4 4 4 4 4 4 4 4 4 4 4 4 4 4 4 4 5 5 4 5 6 6
Wind_Speed
64 64 62 60 59 59 60 59 58 58 57 56 53 51 49 47 46 49 55 56 47 41 47 54 52 48 46 42 43 49 50 50 52 55 57 61 66 71 79 87 94 101 108 114 122 129 140 156 170 179 186 191 191 188 186 184 181 178 176 175 172 169 165 157 150 143 132 129 126 115 110 114 110 107
63 63 61 59 58 59 59 58 58 58 57 55 54 51 50 48 46 46 49 53 49 40 43 52 52 48 45 41 42 47 49 49 52 54 57 61 65 70 77 86 93 100 106 113 120 127 137 153 168 178 185 191 192 189 187 185 184 180 178 178 175 171 168 161 154 149 141 134 132 125 118 117 114 111
63 63 61 59 58 59 59 57 57 58 57 54 52 51 50 48 45 45 46 50 48 38 38 50 52 47 44 40 40 45 48 48 51 54 56 61 65 70 76 84 92 98 105 112 119 126 136 150 166 177 184 190 192 191 187 186 185 183 181 180 178 174 170 165 159 155 149 143 139 137 130 121 117 115
62 62 60 59 58 58 58 57 57 57 56 54 51 50 50 47 44 44 44 47 47 37 34 46 52 47 44 40 39 44 47 48 51 54 56 60 65 70 75 82 90 97 104 110 118 126 134 148 164 175 183 189 193 192 189 187 186 185 184 183 180 176 172 168 164 160 156 151 145 143 139 127 120 119
62 61 60 58 58 58 57 56 57 57 55 53 51 50 49 46 44 43 43 44 45 38 33 42 51 48 44 40 39 42 46 48 51 54 56 59 64 69 74 80 88 96 103 109 117 125 133 145 161 174 182 189 193 193 190 188 187 186 186 185 182 178 174 170 168 164 161 158 151 147 143 134 127 125
61 60 59 58 58 57 56 56 57 57 54 52 51 50 48 46 44 42 42 41 42 39 34 38 48 49 44 40 39 41 45 47 50 53 56 59 64 69 73 79 86 94 101 108 116 124 132 143 157 171 181 188 193 194 192 188 187 187 187 187 183 179 175 172 170 169 165 162 157 151 147 142 136 132
60 59 58 58 58 57 56 56 57 56 54 50 49 50 48 46 44 42 41 40 40 39 36 36 44 48 45 40 39 40 43 47 50 53 56 59 63 68 73 78 84 91 99 106 113 122 130 140 154 168 179 187 192 195 194 190 188 188 188 187 184 180 176 172 171 172 170 166 162 156 151 147 143 138
60 58 57 57 57 56 55 56 56 56 53 48 48 49 47 45 44 42 40 38 37 38 37 36 40 46 45 40 38 39 42 46 49 52 55 59 63 67 72 77 83 89 97 104 112 120 128 137 150 165 177 185 191 195 195 192 188 188 188 186 184 180 178 173 169 172 174 170 165 161 154 149 146 142
60 58 57 57 57 55 55 55 56 55 51 47 47 48 47 45 44 42 40 38 36 36 37 36 37 43 45 40 38 38 40 44 48 51 55 58 63 67 72 77 82 88 95 102 109 118 126 135 146 161 174 184 190 195 196 194 190 188 187 186 183 180 179 175 169 169 174 174 168 163 158 152 148 145
59 57 56 57 56 55 54 55 55 54 50 47 46 46 46 45 43 42 39 37 35 34 35 35 35 40 42 40 37 37 39 43 47 50 54 58 62 67 71 76 81 86 92 99 107 115 124 132 142 157 171 181 189 194 197 195 192 189 187 186 183 181 180 177 171 168 172 176 173 165 160 156 151 148
59 57 56 56 55 54 54 53 53 52 49 47 46 45 45 44 43 41 39 36 34 33 33 33 34 36 39 39 37 36 38 42 46 50 53 57 61 65 70 75 80 86 91 97 104 112 121 130 139 152 166 179 187 193 196 196 194 190 187 185 183 181 180 179 175 171 170 174 176 170 163 159 155 151
57 56 56 55 54 53 53 52 52 50 47 47 47 46 45 44 44 43 39 35 33 32 32 30 31 34 36 37 36 36 37 40 45 49 52 56 60 64 69 73 79 84 90 96 101 109 118 127 136 147 161 175 184 191 195 197 196 193 189 185 182 181 181 180 178 175 172 172 176 175 169 163 159 155
56 55 55 55 54 53 52 52 50 48 46 46 46 45 45 44 45 43 40 36 32 31 31 29 28 31 34 35 35 35 36 39 43 47 51 54 58 63 68 72 77 82 88 94 99 106 114 124 133 142 156 170 181 189 194 197 197 196 192 187 182 181 181 181 180 179 175 173 174 177 174 168 162 158
55 54 54 54 53 53 52 51 49 46 45 44 43 43 42 43 44 43 40 37 33 30 29 28 26 28 31 33 33 34 35 37 42 46 49 53 56 61 66 70 75 80 85 91 97 103 111 120 130 139 150 165 177 186 192 196 197 197 195 190 184 181 182 182 181 180 179 176 174 176 177 174 167 162
55 54 54 53 52 52 52 51 48 44 43 43 42 41 40 41 43 41 39 38 35 30 28 27 26 26 29 31 32 33 34 36 40 44 48 51 55 59 63 68 73 78 82 88 94 100 107 116 127 136 146 159 172 183 190 194 197 197 197 194 189 184 183 183 183 182 180 178 176 175 176 177 173 167
54 53 53 51 51 51 51 50 47 45 43 41 40 39 39 40 41 40 37 36 35 32 27 25 25 25 26 29 31 31 32 34 37 42 46 49 53 57 61 65 70 75 80 85 91 98 104 112 123 133 143 154 167 179 187 193 196 197 197 196 194 190 186 184 184 183 181 178 177 175 175 177 176 172
53 53 52 50 50 50 50 49 47 45 43 40 38 37 38 39 39 38 36 33 32 32 29 25 24 24 25 26 29 30 30 32 35 39 44 47 51 55 59 62 67 72 77 82 89 95 101 108 119 130 140 150 162 175 184 190 194 196 196 196 195 194 191 187 185 184 182 179 177 176 175 175 176 175
52 52 51 49 49 49 49 49 47 46 44 40 36 36 36 36 36 37 36 31 28 28 28 26 24 23 24 24 27 29 29 30 33 37 42 46 49 53 56 59 63 69 74 79 85 92 98 105 114 126 137 146 157 170 181 188 192 195 196 196 195 194 194 191 188 185 183 181 179 177 175 174 175 176
51 51 49 48 48 48 48 48 48 47 44 40 36 36 36 35 35 35 35 31 25 24 25 25 23 23 23 23 25 27 27 28 31 35 39 44 47 50 53 57 61 66 72 77 82 88 94 101 110 122 133 142 152 164 176 184 190 194 195 195 194 193 193 193 191 188 185 183 181 179 177 175 174 175
49 49 48 47 47 47 47 47 48 47 44 40 37 36 36 35 34 33 32 31 27 23 23 23 23 22 22 23 24 26 26 27 29 33 38 42 45 48 51 55 59 64 70 76 81 86 91 98 107 117 128 138 147 158 171 180 188 192 194 194 194 193 193 193 193 191 187 185 183 182 179 177 176 174
48 48 47 46 45 45 46 47 47 47 44 40 37 35 35 35 34 31 29 30 30 27 24 22 22 21 21 21 23 24 25 26 27 31 36 40 44 47 50 53 57 62 69 75 81 85 88 95 105 112 121 132 142 152 164 175 184 190 193 194 193 193 192 193 193 192 190 187 185 184 181 178 177 176
46 46 45 44 44 44 45 46 47 46 44 40 37 35 35 34 33 32 29 29 29 30 28 24 22 21 20 20 22 23 24 25 26 30 34 39 44 47 49 52 56 61 67 74 80 84 86 92 102 108 113 125 137 146 157 169 179 187 192 194 194 193 193 193 192 191 191 189 187 185 183 181 179 178
45 44 43 42 42 43 43 45 46 45 44 41 38 36 35 34 33 33 32 29 28 28 28 25 23 21 20 19 20 22 23 24 25 29 34 38 43 46 49 52 55 60 66 73 78 81 83 89 99 103 108 118 132 142 151 162 174 183 189 193 194 193 193 193 192 191 190 189 189 187 185 183 182 181
43 42 41 40 40 41 42 43 44 44 43 41 38 36 35 35 35 34 33 31 29 27 26 24 22 20 19 19 20 21 22 23 25 28 33 37 42 46 49 52 55 59 64 70 74 76 80 88 97 101 106 115 127 138 148 157 167 178 186 191 194 194 193 192 192 191 189 188 188 187 185 184 183 183
41 39 38 38 39 39 40 41 42 42 41 39 38 36 36 36 36 34 32 30 28 27 25 23 20 19 19 18 19 20 21 22 24 27 32 36 41 45 49 52 54 57 62 67 71 74 81 89 95 99 105 112 121 132 143 151 161 172 182 188 193 194 194 193 191 190 189 187 187 186 184 182 181 180
39 38 37 37 38 38 39 40 40 40 39 38 36 35 35 36 36 35 32 29 27 25 24 22 20 18 18 17 18 19 20 21 23 27 31 35 40 44 48 52 54 56 60 65 68 74 81 88 93 97 103 110 117 126 136 145 154 164 175 184 190 194 195 194 191 190 188 186 184 184 182 180 178 176
37 36 36 36 36 37 37 39 39 38 38 36 34 34 35 36 36 34 31 28 26 24 22 21 19 17 16 16 17 18 19 21 23 26 30 34 39 43 48 52 54 56 60 63 67 72 79 85 90 95 101 106 113 120 129 139 148 156 166 177 186 192 195 195 193 190 188 185 182 182 181 178 176 174
36 35 35 35 35 36 37 37 37 37 36 34 33 33 34 34 34 32 29 26 24 23 21 20 18 16 15 15 16 17 19 20 22 25 29 33 38 43 47 51 54 56 59 63 67 71 76 82 88 93 98 103 108 115 123 133 142 150 159 169 179 187 192 194 194 192 189 184 180 179 179 177 174 173
35 35 35 34 34 35 36 36 36 35 35 34 33 31 30 31 31 31 29 26 24 22 21 19 17 16 14 14 15 16 18 19 22 25 28 32 37 42 46 50 53 55 58 62 66 70 74 80 86 91 95 99 104 111 119 127 136 145 153 161 171 181 188 192 194 193 191 187 181 177 176 175 174 173
34 34 34 34 34 34 35 35 35 34 34 34 33 30 29 29 30 30 29 26 24 22 20 18 16 15 14 13 14 15 17 19 21 24 27 31 36 41 45 49 52 54 57 61 64 68 72 78 84 89 93 96 101 108 115 122 130 139 147 155 163 173 182 189 193 194 193 191 186 179 175 174 174 173
33 33 33 33 33 34 35 34 34 33 33 32 32 31 30 31 31 30 28 26 23 22 20 18 16 15 14 13 13 15 17 18 20 23 27 31 35 40 44 47 50 52 55 59 62 66 70 75 81 86 91 95 99 105 111 117 125 133 141 149 156 164 174 183 190 194 194 194 192 186 179 176 174 174
32 32 32 32 33 34 34 33 33 32 32 32 32 32 32 32 33 32 30 27 24 22 20 18 16 14 13 12 12 14 16 18 20 22 27 31 35 39 43 46 49 51 53 57 60 64 68 73 78 83 88 92 97 102 107 113 119 126 134 142 150 157 165 174 183 191 194 195 194 192 186 180 177 175
31 31 31 31 33 33 33 33 33 32 31 31 32 32 32 32 32 32 30 27 24 22 20 18 16 14 13 12 12 13 16 18 19 21 26 30 34 38 42 45 47 49 52 55 58 62 66 71 76 80 85 90 95 100 104 109 114 119 126 134 142 149 156 164 174 183 190 193 194 194 191 186 181 177
30 29 29 30 32 33 33 33 33 32 31 31 31 32 32 31 31 30 29 27 24 21 19 18 16 14 12 12 12 12 15 18 19 21 24 29 34 37 40 43 46 48 50 53 56 59 63 67 72 77 82 88 93 97 100 104 109 114 120 127 135 142 149 156 164 173 182 189 192 193 193 190 186 182
28 28 28 30 31 32 32 33 33 32 30 30 31 31 32 31 30 29 28 27 25 21 19 17 16 14 12 12 12 12 14 17 19 21 23 28 33 37 40 42 44 46 49 51 54 57 60 64 68 73 79 84 89 93 96 100 105 110 115 121 128 135 143 150 156 164 172 181 188 192 193 192 191 187
27 27 28 30 31 31 32 32 32 31 30 29 30 30 31 31 30 28 26 26 24 21 19 17 15 14 12 12 12 12 13 16 19 21 22 26 31 36 39 41 43 45 47 50 52 55 57 61 65 70 75 79 83 88 93 98 102 106 111 116 122 128 136 143 150 156 163 172 180 187 191 193 193 192
25 26 28 30 31 31 32 32 32 31 29 29 29 29 29 30 30 28 26 25 24 21 18 16 15 14 12 11 11 12 13 15 18 21 22 25 29 34 38 40 42 44 46 48 51 54 57 59 63 67 72 77 81 86 91 95 99 103 107 112 118 123 129 136 143 150 156 163 171 179 187 191 193 195
24 26 28 29 30 31 32 32 31 30 29 29 29 29 28 29 29 29 26 24 24 22 19 16 15 14 12 11 11 12 13 14 17 20 23 24 27 32 36 39 41 43 44 47 50 53 56 59 62 65 70 75 80 85 89 93 97 101 104 109 114 118 123 129 136 143 149 155 162 170 178 186 191 194
23 26 27 28 30 30 31 31 31 30 29 30 30 29 28 28 29 29 27 24 23 21 20 17 15 13 12 11 11 11 13 14 16 19 22 24 26 30 34 38 40 42 43 46 49 52 56 59 61 64 68 73 78 83 88 91 95 99 102 106 110 114 119 124 129 136 142 149 154 161 169 177 185 191
23 25 26 27 29 30 31 31 30 30 30 30 30 29 28 28 28 28 27 25 22 21 19 17 15 13 12 12 11 11 12 14 16 18 21 24 26 29 32 36 40 42 43 45 47 51 54 57 61 64 67 71 75 80 85 90 94 97 100 104 107 111 115 119 124 129 135 142 148 154 160 167 176 183
23 25 26 27 28 29 30 30 30 30 30 31 30 29 28 28 27 27 27 25 23 20 19 17 15 13 12 12 11 11 12 14 16 17 20 23 26 28 31 34 38 41 43 45 46 49 52 56 59 63 66 70 73 77 82 87 91 95 98 102 105 108 111 115 119 124 129 135 141 148 154 159 166 173
23 24 25 26 27 28 29 30 30 30 31 31 31 30 28 28 27 27 26 25 23 21 19 17 15 14 12 11 11 12 12 13 15 17 19 22 25 28 30 33 36 40 42 44 46 48 50 54 58 61 65 68 72 75 79 83 87 91 95 99 102 105 108 111 115 119 123 128 134 141 147 152 158 164
23 24 25 26 27 28 29 29 29 30 31 31 31 30 29 28 27 27 25 25 24 22 20 18 16 14 13 12 11 12 12 13 15 17 19 21 23 27 30 32 35 38 41 43 45 47 49 52 56 60 63 67 70 74 77 81 84 88 92 95 99 102 105 108 111 115 119 123 128 134 140 146 151 156
23 24 25 26 27 28 28 29 29 30 31 31 31 30 29 29 28 27 26 24 23 23 21 19 17 15 13 12 11 12 12 13 14 17 19 21 23 25 29 32 34 37 39 42 45 47 48 51 54 58 62 65 68 71 75 79 82 85 88 92 95 99 102 105 108 111 114 118 122 127 132 138 144 149
23 24 25 26 27 28 28 29 29 30 31 31 31 30 30 29 28 27 26 25 23 23 22 20 18 16 14 13 12 12 12 13 14 16 18 20 22 24 27 30 33 36 38 41 44 46 48 50 53 56 60 63 66 69 73 76 79 83 86 89 92 96 99 102 105 108 111 114 117 121 125 130 136 141
Wind_Direction
309 308 309 309 309 308 306 306 307 306 306 306 306 304 302 301 300 298 295 293 292 288 282 278 275 271 267 262 253 250 247 241 236 232 228 224 220 217 215 211 209 207 206 205 205 204 202 201 200 199 198 198 198 199 200 201 201 201 202 203 202 202 202 201 200 200 200 199 196 194 201 205 206 207
309 310 310 311 310 308 307 308 308 307 307 308 307 305 303 302 300 296 294 292 291 289 282 277 275 272 268 262 253 249 246 240 235 231 227 223 219 216 214 212 209 207 206 205 204 204 202 201 200 199 198 198 198 199 200 201 201 201 202 203 203 202 202 201 201 200 201 200 196 194 198 202 204 205
311 311 311 312 311 309 308 309 309 308 308 308 308 306 304 303 300 298 295 293 291 288 282 277 275 272 268 262 253 248 245 240 235 231 226 222 219 215 213 211 209 207 206 205 204 204 202 201 200 199 199 199 198 199 200 201 201 202 202 203 203 202 202 202 201 200 201 202 199 196 197 200 202 203
312 312 312 312 311 309 309 311 310 308 309 309 308 307 305 304 302 300 298 295 292 288 280 276 275 273 268 262 252 246 243 239 235 232 226 222 218 215 213 211 209 207 206 205 203 203 202 201 200 200 199 199 199 199 200 201 202 202 203 203 203 203 202 202 202 201 202 203 202 200 199 200 202 202
312 313 313 313 311 310 311 312 310 309 310 311 309 307 305 305 304 302 300 297 293 289 280 274 274 273 268 262 252 245 241 237 233 231 227 222 218 215 212 211 209 208 206 205 203 203 202 201 200 200 199 199 199 199 199 201 202 202 203 204 203 203 202 202 203 202 202 204 205 203 201 201 202 203
313 313 314 313 311 311 312 312 311 310 311 312 310 308 307 307 305 304 302 299 294 290 282 273 271 271 268 261 252 244 240 236 232 230 226 222 219 215 212 211 210 208 207 205 204 203 202 201 200 200 200 199 199 199 199 200 202 202 203 204 203 203 203 203 204 204 203 204 206 206 204 203 204 204
314 314 314 313 312 312 313 313 311 311 311 312 311 310 309 308 307 305 303 300 295 289 283 273 269 269 267 261 253 244 238 235 231 228 225 221 219 216 213 211 210 208 207 206 204 203 202 202 201 200 200 200 200 199 199 200 201 202 203 204 204 204 204 204 205 205 205 205 206 207 206 206 206 206
314 315 315 313 312 313 314 313 311 311 312 313 313 311 310 309 307 306 305 302 296 289 282 273 267 267 266 261 253 245 238 235 231 227 224 220 218 217 214 211 210 209 208 206 205 203 203 202 201 200 200 200 200 200 199 199 201 202 203 204 204 204 204 204 205 206 206 206 206 207 207 207 207 207
314 316 315 313 312 314 314 313 311 311 312 315 315 313 311 310 308 307 306 302 296 289 282 274 266 265 265 261 253 245 238 234 231 228 224 220 217 216 214 212 210 209 208 207 205 204 203 202 202 201 201 200 200 200 200 199 200 202 203 204 204 204 204 204 205 207 207 207 207 207 208 208 208 208
315 316 315 313 313 314 314 312 312 312 314 316 316 314 312 310 309 308 306 302 295 288 281 274 267 264 264 261 254 246 238 234 231 228 224 221 217 215 214 212 211 209 208 207 206 205 203 203 202 201 201 201 201 201 201 200 200 202 204 204 204 204 204 204 205 208 209 208 207 207 208 208 209 209
315 316 315 313 313 314 313 312 312 313 316 318 317 314 312 311 310 309 307 302 296 289 281 275 269 264 263 261 255 246 239 233 231 228 224 221 218 215 214 213 211 209 208 208 207 205 204 203 203 202 201 201 201 201 201 200 200 202 203 204 204 204 204 204 205 207 210 210 209 208 208 209 209 209
315 316 314 312 313 313 312 312 313 315 318 320 319 316 315 314 312 310 308 304 298 291 284 278 271 266 262 260 255 247 239 233 230 228 225 222 219 216 214 213 211 210 208 208 207 206 205 204 203 203 202 202 202 201 201 201 200 201 203 204 204 204 204 205 206 207 210 211 210 209 209 209 209 210
316 315 313 313 313 313 313 312 313 317 320 321 320 317 316 315 313 311 308 305 299 293 287 280 273 268 263 259 255 248 240 233 230 228 225 222 219 216 214 213 212 210 209 208 207 206 205 204 204 203 203 202 202 202 202 202 201 202 203 203 203 203 204 206 207 208 210 211 212 211 210 210 210 210
315 314 313 313 314 314 313 312 314 318 321 322 319 316 316 315 313 311 309 305 300 295 290 284 275 268 264 260 254 248 241 233 230 228 225 223 220 218 215 213 212 211 210 208 207 207 206 205 204 204 203 203 203 202 202 202 202 202 203 203 203 203 205 206 208 209 210 212 213 212 211 211 211 211
315 314 313 314 315 314 313 313 316 320 322 322 319 316 316 315 312 311 310 307 302 297 292 287 280 271 265 261 255 248 241 234 229 228 226 222 220 219 216 213 212 211 210 209 208 207 206 205 204 204 204 203 203 203 203 203 202 202 203 204 204 204 205 207 208 209 210 212 214 214 213 212 212 212
315 314 313 314 314 313 313 314 317 320 322 322 320 317 317 316 313 311 311 308 303 300 295 290 283 275 267 261 256 250 242 235 229 227 226 223 220 219 218 215 212 211 210 209 208 207 207 205 204 204 204 204 203 203 203 203 203 203 204 204 205 205 206 207 209 210 211 212 214 215 215 213 213 213
314 313 313 314 314 313 314 315 317 320 322 322 321 320 319 317 314 313 310 307 303 301 298 293 286 278 270 263 257 251 244 236 230 226 225 223 221 219 218 215 213 211 210 209 208 207 207 206 205 204 204 204 204 204 204 204 203 203 204 205 205 206 207 208 209 210 211 212 214 215 216 215 214 214
313 312 313 315 315 314 315 316 318 319 321 322 322 321 319 317 316 314 310 305 303 303 301 297 290 282 273 265 259 254 246 237 231 226 224 223 221 219 218 216 213 212 211 210 209 207 207 206 205 204 204 204 204 204 204 204 204 204 204 205 206 206 207 209 210 211 211 212 214 215 216 217 216 215
313 312 314 315 315 315 316 317 317 319 321 323 324 324 321 319 319 316 310 306 304 306 304 299 293 285 277 269 261 256 249 239 232 227 224 222 221 219 217 215 213 211 211 210 210 209 207 206 206 205 204 204 204 204 204 204 204 204 204 205 206 206 208 209 210 211 212 212 214 216 217 218 218 217
312 312 314 315 315 316 317 317 317 318 321 325 327 326 324 322 321 318 313 311 310 310 308 301 294 287 278 270 263 257 250 241 232 226 223 221 220 218 216 214 211 210 210 210 210 209 207 205 206 206 204 204 204 204 205 205 205 205 205 205 206 207 208 209 211 212 212 213 214 216 217 218 218 218
312 313 315 315 316 317 317 317 317 319 322 325 327 327 325 324 322 320 319 318 316 315 312 305 296 289 281 272 264 257 250 241 232 226 222 220 219 217 214 212 210 208 209 209 209 209 207 205 206 207 205 204 205 205 205 205 205 205 205 205 206 207 208 209 211 212 213 213 214 216 217 218 219 219
312 314 315 315 316 317 317 317 317 319 322 325 327 328 327 326 326 325 324 322 319 316 313 309 301 292 283 274 265 257 250 241 231 225 221 219 217 216 213 211 209 207 207 208 208 208 206 204 206 207 206 204 205 205 205 205 205 206 206 206 206 207 208 209 211 212 213 214 215 216 217 218 219 220
312 313 314 315 316 317 317 317 318 320 322 325 328 329 328 329 331 330 326 323 319 314 311 308 302 294 285 276 266 256 248 240 230 223 220 217 216 215 213 210 208 206 206 207 208 207 205 204 206 207 206 205 204 205 206 206 206 206 206 206 206 207 208 209 211 212 213 214 215 216 217 218 219 220
312 313 314 315 316 316 316 317 318 320 323 325 328 330 331 333 333 332 327 322 318 314 309 305 300 293 285 276 265 254 246 239 229 221 218 216 214 213 212 210 207 205 205 207 207 205 204 204 205 206 206 205 205 205 206 206 206 206 207 207 207 207 208 209 210 212 213 214 215 216 217 218 220 221
311 313 314 316 316 315 316 317 319 321 322 325 328 331 334 335 333 331 327 321 317 314 309 305 299 291 284 275 263 251 243 236 228 220 215 214 212 211 211 210 207 204 204 205 205 203 203 204 205 205 205 205 205 205 206 206 206 206 207 207 207 207 208 208 210 211 213 214 215 216 217 218 219 221
312 313 315 316 315 315 316 318 320 321 322 326 329 332 335 335 332 330 326 321 316 314 310 305 300 291 283 274 262 249 240 233 227 219 213 211 209 208 209 209 207 204 203 204 204 203 203 204 205 205 205 205 205 205 206 206 207 207 207 207 208 208 208 208 209 211 212 214 215 216 217 218 219 220
313 314 315 315 314 315 316 319 320 322 323 326 330 333 335 334 330 328 326 322 318 315 311 306 300 292 282 272 260 247 237 230 225 218 212 209 207 206 207 208 206 203 202 203 203 202 203 203 204 205 205 205 205 205 206 206 207 208 208 208 208 208 209 209 209 210 211 213 214 216 217 217 218 220
313 314 315 314 314 315 318 320 321 322 323 326 331 335 335 331 328 328 327 324 320 316 312 308 301 293 283 273 259 245 234 228 223 217 211 208 206 205 205 206 206 203 202 202 202 201 202 203 204 205 205 205 204 205 206 206 207 208 208 208 209 209 209 209 209 210 211 211 213 215 216 216 217 219
313 314 315 314 314 316 318 320 322 324 325 327 331 333 332 331 330 331 330 327 323 318 314 310 303 294 284 273 259 243 232 226 222 217 212 208 206 205 205 206 205 203 202 202 202 201 201 202 204 205 206 205 204 205 205 206 207 208 208 209 209 209 209 210 210 210 210 211 211 213 215 216 217 218
313 314 314 314 314 316 319 321 323 325 326 327 328 331 333 335 335 334 332 329 325 320 316 312 306 296 285 274 260 243 230 223 220 217 213 209 207 206 206 206 206 204 202 203 203 202 201 201 203 205 206 206 205 205 205 206 206 207 208 209 209 209 210 210 210 210 210 211 211 212 214 215 216 218
313 314 314 313 314 317 320 322 325 326 326 328 330 333 337 339 338 336 334 331 327 322 318 314 308 298 287 275 261 245 230 221 218 217 213 210 208 207 206 207 206 205 203 203 203 202 202 202 203 204 205 205 205 205 206 206 206 207 208 209 209 210 210 210 211 211 211 211 211 211 213 215 216 217
313 314 313 313 315 318 321 323 326 327 328 330 332 334 337 339 339 337 335 333 329 324 319 314 309 300 288 275 262 246 232 220 215 216 214 211 209 208 207 207 207 206 204 204 203 203 202 202 203 204 205 205 205 206 206 207 207 207 207 208 209 210 210 211 211 211 212 212 212 211 212 214 215 216
313 312 312 313 316 319 322 325 327 328 330 332 334 334 336 338 338 336 333 332 330 324 318 314 310 302 290 276 262 247 234 222 214 213 215 212 210 209 208 208 208 207 205 204 204 204 203 203 203 204 205 205 206 206 207 207 207 207 207 208 209 210 211 211 211 212 212 212 213 212 212 213 214 216
312 311 312 314 317 320 323 326 327 329 331 333 334 333 334 336 338 336 333 332 330 325 319 314 310 304 293 278 263 249 236 225 214 211 214 214 211 210 210 209 209 208 206 205 205 205 204 204 204 204 204 205 206 207 207 207 208 208 208 208 209 210 211 211 212 212 213 213 213 213 213 212 213 215
311 311 313 316 319 321 324 326 327 329 331 333 334 333 333 334 337 337 334 332 330 326 320 314 309 305 295 281 265 250 238 228 217 211 211 214 212 211 211 211 210 208 207 205 205 205 205 205 205 205 205 206 206 207 207 208 208 209 209 209 209 209 211 211 212 212 213 213 214 214 214 213 213 214
311 312 315 318 320 323 325 326 326 328 331 334 334 333 332 333 335 337 336 332 330 328 322 314 309 304 296 283 267 252 239 230 221 213 209 213 214 212 211 212 211 210 208 207 205 204 205 205 205 205 206 207 207 207 208 208 209 209 209 209 209 209 210 211 212 212 213 214 214 214 215 214 214 214
313 315 318 320 321 323 325 325 326 328 332 334 334 333 332 333 334 336 337 335 333 330 325 317 309 303 296 285 270 255 242 232 224 216 209 210 214 213 211 212 213 211 209 208 206 205 204 205 205 205 205 206 206 207 208 209 209 210 210 210 210 210 210 211 212 213 213 214 214 215 215 215 215 214
314 317 319 320 322 323 324 324 326 328 332 334 333 332 333 334 334 336 338 339 336 331 327 320 310 302 296 287 273 258 245 234 227 220 212 209 211 214 213 211 212 213 211 209 207 206 205 204 204 205 206 206 206 206 207 209 209 210 211 211 211 211 211 211 212 213 213 214 214 215 215 216 216 216
315 317 319 320 322 323 323 324 326 330 333 334 333 332 333 335 336 336 338 339 338 333 328 322 313 303 295 287 276 262 249 238 229 223 216 210 209 213 214 213 212 212 213 211 209 207 207 205 204 204 205 206 207 207 207 208 209 210 211 212 212 212 212 212 212 213 213 214 214 215 215 216 217 217
316 318 319 321 322 322 323 324 327 330 333 333 333 332 333 335 337 337 337 338 339 335 329 323 315 305 295 287 278 266 253 242 232 225 220 214 210 210 214 215 213 212 213 213 211 209 208 207 205 204 205 206 207 208 208 208 208 209 210 212 213 213 213 213 213 213 213 214 215 215 216 216 217 217
317 318 320 321 322 322 323 325 328 331 332 332 332 332 333 335 337 338 338 337 338 337 332 326 319 309 298 288 279 270 257 246 236 228 222 218 213 210 211 214 215 213 212 213 213 212 210 209 208 207 206 206 207 208 209 209 209 209 210 211 212 213 214 214 214 214 214 214 215 216 216 217 217 218
317 319 320 322 322 323 324 326 329 331 332 332 331 332 333 335 336 338 339 338 338 338 336 330 323 314 302 290 279 270 261 251 241 232 225 220 217 213 211 212 215 216 214 213 213 213 212 211 210 209 208 207 207 208 209 210 211 211 211 211 212 213 214 214 215 215 214 215 215 216 217 217 218 218
318 320 322 323 323 323 324 327 329 331 331 331 331 331 333 334 336 338 340 341 340 339 338 334 327 318 307 294 280 270 262 254 245 237 229 223 219 216 213 212 214 216 216 215 214 214 214 213 212 211 211 210 209 208 209 210 211 212 213 213 213 213 214 214 215 215 215 215 216 216 217 218 218 219
319 321 323 323 323 323 325 328 330 331 331 330 330 331 332 333 335 338 340 343 342 340 339 336 331 323 312 298 284 270 262 254 248 241 234 227 221 218 216 213 213 214 217 217 216 215 214 214 214 213 213 212 211 211 210 210 211 212 213 214 214 215 215 215 215 216 216 216 216 217 217 218 219 219
320 322 323 323 323 324 327 329 330 331 331 330 329 330 331 332 335 337 340 343 344 343 340 337 334 328 318 305 290 273 262 254 248 243 237 231 225 220 218 216 214 214 215 217 218 217 215 215 216 216 215 214 213 213 213 212 212 212 213 214 215 216 216 216 216 217 217 217 217 217 218 218 219 220